Hundvaag 1 weather for Aug 1991
Month no. 50
Obs.
Da.
Temp. Dew Point Precip. Wind
Speed
Wind gusts Cloud cover Press. Humidity Wind dir. Sunny OPT
01.08.1991 20,2   0,0             1  
02.08.1991 18,0   1,3                
03.08.1991 17,9   27,6             1  
04.08.1991 17,9   0,2             1  
05.08.1991 16,3   0,0                
06.08.1991 15,1   4,3                
07.08.1991 14,6   1,4             1  
08.08.1991 14,2   0,0             1  
09.08.1991 13,2   0,0                
10.08.1991 15,5   20,0                
11.08.1991 12,6   12,7                
12.08.1991 12,2   17,0                
13.08.1991 11,1   3,8                
14.08.1991 13,2   5,0             1  
15.08.1991 13,8   0,5                
16.08.1991 14,6   8,0                
17.08.1991 14,1   11,3             1  
18.08.1991 13,2   3,1             1  
19.08.1991 13,8   0,0             1  
20.08.1991 12,1   2,1             1  
21.08.1991 10,9   0,8             1  
22.08.1991 14,9   0,0             1  
23.08.1991 18,3   0,2             1  
24.08.1991 14,4   6,3             1  
25.08.1991 13,4   0,6             1  
26.08.1991 11,2   0,0             1  
27.08.1991 11,2   0,0             1  
28.08.1991 11,8   0,0             1  
29.08.1991 8,5   0,0             1  
30.08.1991 13,9   0,9                
31.08.1991 14,6   0,1             1  
Avrg/Sum 14,1   127,2             20